WetterOnline ( http://www.wetteronline.at )

Wetter aktuell Kassel

Aktuelles Wetter: Schauenburg-Elgershausen (317m)

6-stündlich | Neueste Meldungen
Ortszeit Temperatur Wetter
So, 24.03. 7:00 6.2° C bedeckt
So, 24.03. 1:00 7.6° C bedeckt
Sa, 23.03. 19:00 7.4° C wolkig
Sa, 23.03. 13:00 8.5° C wolkenlos
Sa, 23.03. 7:00 5.5° C leicht bewölkt
Sa, 23.03. 1:00 7.7° C wolkenlos
Fr, 22.03. 19:00 12.4° C wolkenlos
Fr, 22.03. 13:00 15.7° C wolkenlos
Ortszeit Temperatur Wetter
So, 24.03. 12:00 7.8° C bedeckt
So, 24.03. 11:50 7.8° C bedeckt
So, 24.03. 11:40 7.9° C bedeckt
So, 24.03. 11:30 7.7° C bedeckt
So, 24.03. 11:20 7.7° C bedeckt
So, 24.03. 11:10 7.6° C bedeckt
So, 24.03. 11:00 7.5° C bedeckt
So, 24.03. 10:30 7.1° C bedeckt
So, 24.03. 10:00 6.7° C bedeckt
So, 24.03. 9:30 6.1° C bedeckt
So, 24.03. 9:00 6.5° C bedeckt
Ortszeit Relative Feuchte Sichtweite
So, 24.03. 7:00 86% 13 km
So, 24.03. 1:00 89% 5.0 km
Sa, 23.03. 19:00 81% 8 km
Sa, 23.03. 13:00 78% 6 km
Sa, 23.03. 7:00 86% 27 km
Sa, 23.03. 1:00 76% 45 km
Fr, 22.03. 19:00 68% 40 km
Fr, 22.03. 13:00 52% 30 km
Ortszeit Relative Feuchte Sichtweite
So, 24.03. 12:00 77% 22 km
So, 24.03. 11:50 77% -
So, 24.03. 11:40 78% -
So, 24.03. 11:30 78% 24 km
So, 24.03. 11:20 78% -
So, 24.03. 11:10 78% -
So, 24.03. 11:00 80% 20 km
So, 24.03. 10:30 82% 18 km
So, 24.03. 10:00 83% 20 km
So, 24.03. 9:30 86% 18 km
So, 24.03. 9:00 85% 14 km
Ortszeit Niederschlagsmenge Niederschlagsart
So, 24.03. 7:00 0.0 l/m2 in 12 Std. -
So, 24.03. 1:00 0.0 l/m2 in 6 Std. -
Sa, 23.03. 19:00 0.0 l/m2 in 12 Std. -
Sa, 23.03. 13:00 0.0 l/m2 in 6 Std. -
Sa, 23.03. 7:00 0.0 l/m2 in 12 Std. -
Sa, 23.03. 1:00 0.0 l/m2 in 6 Std. -
Fr, 22.03. 19:00 0.0 l/m2 in 12 Std. -
Fr, 22.03. 13:00 0.0 l/m2 in 6 Std. -
Ortszeit Niederschlagsmenge Niederschlagsart
So, 24.03. 12:00 0.0 l/m2 in 1 Std. -
So, 24.03. 11:50 keine Meldung -
So, 24.03. 11:40 keine Meldung -
So, 24.03. 11:30 0.0 l/m2 in 1 Std. -
So, 24.03. 11:20 keine Meldung -
So, 24.03. 11:10 keine Meldung -
So, 24.03. 11:00 0.0 l/m2 in 1 Std. -
So, 24.03. 10:30 0.0 l/m2 in 1 Std. -
So, 24.03. 10:00 0.0 l/m2 in 1 Std. -
So, 24.03. 9:30 0.0 l/m2 in 1 Std. -
So, 24.03. 9:00 0.0 l/m2 in 1 Std. -
Ortszeit Stärke Spitze Richtung
km/h Bft. km/h Grad Sektor
So, 24.03. 7:00 4 1 25 70° O
So, 24.03. 1:00 6 1 19 40° NO
Sa, 23.03. 19:00 13 3 33 290° W
Sa, 23.03. 13:00 25 4 32 290° W
Sa, 23.03. 7:00 0 0 11 - -
Sa, 23.03. 1:00 4 1 11 20° N
Fr, 22.03. 19:00 9 2 19 10° N
Fr, 22.03. 13:00 11 2 18 160° S
Ortszeit Stärke Spitze Richtung
km/h Bft. km/h Grad Sektor
So, 24.03. 12:00 7 2 14 280° W
So, 24.03. 11:50 7 2 - 280° W
So, 24.03. 11:40 4 1 - 180° S
So, 24.03. 11:30 4 1 7 180° S
So, 24.03. 11:20 4 1 - 180° S
So, 24.03. 11:10 4 1 - 170° S
So, 24.03. 11:00 4 1 7 220° SW
So, 24.03. 10:30 4 1 7 170° S
So, 24.03. 10:00 6 1 9 300° NW
So, 24.03. 9:30 7 2 11 280° W
So, 24.03. 9:00 4 1 7 210° SW
Ortszeit Untergrenze Bedeckung Gattung
total tief tief mittel hoch
So, 24.03. 7:00 300 m 8/8 8/8 - - -
So, 24.03. 1:00 210 m 8/8 8/8 - - -
Sa, 23.03. 19:00 9000 m 7/8 0/8 - - -
Sa, 23.03. 13:00 - 0/8 0/8 - - -
Sa, 23.03. 7:00 9000 m 3/8 0/8 - - -
Sa, 23.03. 1:00 - 0/8 0/8 - - -
Fr, 22.03. 19:00 - 0/8 0/8 - - -
Fr, 22.03. 13:00 - 0/8 0/8 - - -
Ortszeit Bedeckungsgrad in Achtel und Wolkenuntergrenze
So, 24.03. 12:00 4(930m) 8(1200m)
So, 24.03. 11:50 4(930m) 8(1200m)
So, 24.03. 11:40 6(960m) 8(1170m)
So, 24.03. 11:30 6(990m) 8(1170m)
So, 24.03. 11:20 6(990m) 8(1170m)
So, 24.03. 11:10 1(600m) 8(1050m)
So, 24.03. 11:00 4(600m) 8(1050m)
So, 24.03. 10:30 5(570m) 8(1080m)
So, 24.03. 10:00 7(600m) 8(1020m)
So, 24.03. 9:30 7(570m) 8(1020m)
So, 24.03. 9:00 8(540m) 8(1050m)
Ortszeit Luftdruck NN (hPa) Tendenz (hPa in 3 Std.)
So, 24.03. 7:00 1028 - 0,9
So, 24.03. 1:00 1029 - 1,1
Sa, 23.03. 19:00 1030 + 0,2
Sa, 23.03. 13:00 1029 + 1,0
Sa, 23.03. 7:00 1028 + 0,6
Sa, 23.03. 1:00 1028 - 0,6
Fr, 22.03. 19:00 1028 - 1,0
Fr, 22.03. 13:00 1030 - 1,5
Ortszeit Luftdruck NN (hPa) Tendenz (hPa in 3 Std.)
So, 24.03. 12:00 1026 - 1,3
So, 24.03. 11:50 1026 keine Meldung
So, 24.03. 11:40 1026 keine Meldung
So, 24.03. 11:30 1026 - 1,1
So, 24.03. 11:20 1026 keine Meldung
So, 24.03. 11:10 1026 keine Meldung
So, 24.03. 11:00 1026 - 1,2
So, 24.03. 10:30 1027 - 0,7
So, 24.03. 10:00 1027 - 0,7
So, 24.03. 9:30 1027 - 0,6
So, 24.03. 9:00 1028 - 0,3
Ortszeit Schneehöhe (cm)
So, 24.03. 7:00 0
So, 24.03. 1:00 0
Sa, 23.03. 19:00 0
Sa, 23.03. 13:00 0
Sa, 23.03. 7:00 0
Sa, 23.03. 1:00 0
Fr, 22.03. 19:00 0
Fr, 22.03. 13:00 0
Ortszeit Schneehöhe (cm)
So, 24.03. 12:00 0
So, 24.03. 11:50 0
So, 24.03. 11:40 0
So, 24.03. 11:30 0
So, 24.03. 11:20 0
So, 24.03. 11:10 0
So, 24.03. 11:00 0
So, 24.03. 10:30 0
So, 24.03. 10:00 0
So, 24.03. 9:30 0
So, 24.03. 9:00 0
Link zu dieser Seite / Seite empfehlen

Das Wetter in ...